TimeCST,TemperatureF,Dew PointF,Humidity,Sea Level PressureIn,VisibilityMPH,Wind Direction,Wind SpeedMPH,Gust SpeedMPH,PrecipitationIn,Events,Conditions,WindDirDegrees,DateUTC
12:58 AM,27.7,19.9,73,30.53,10.0,North,3.5,-,N/A,,Clear,10,2013-11-29 06:58:00
1:58 AM,23.0,17.6,80,30.55,10.0,North,3.5,-,N/A,,Clear,10,2013-11-29 07:58:00
2:58 AM,22.5,17.8,82,30.56,10.0,Calm,Calm,-,N/A,,Clear,0,2013-11-29 08:58:00
3:58 AM,21.2,17.6,86,30.57,10.0,NNE,2.3,-,N/A,,Clear,20,2013-11-29 09:58:00
4:58 AM,20.1,16.3,85,30.58,10.0,NNE,2.3,-,N/A,,Clear,20,2013-11-29 10:58:00
5:58 AM,18.5,14.4,84,30.59,10.0,NNE,2.3,-,N/A,,Clear,20,2013-11-29 11:58:00
6:58 AM,19.8,16.7,88,30.61,10.0,NNE,3.5,-,N/A,,Clear,20,2013-11-29 12:58:00
7:58 AM,24.8,19.4,80,30.62,10.0,NNE,2.3,-,N/A,,Clear,20,2013-11-29 13:58:00
8:58 AM,29.8,22.8,75,30.63,10.0,East,4.6,-,N/A,,Clear,90,2013-11-29 14:58:00
9:58 AM,33.8,23.0,65,30.62,10.0,East,5.8,-,N/A,,Clear,100,2013-11-29 15:58:00
10:58 AM,39.2,24.8,56,30.61,10.0,Variable,3.5,-,N/A,,Clear,0,2013-11-29 16:58:00
11:58 AM,41.0,24.8,53,30.58,10.0,Variable,4.6,-,N/A,,Clear,0,2013-11-29 17:58:00
12:58 PM,42.8,24.8,49,30.55,10.0,Variable,1.2,-,N/A,,Clear,0,2013-11-29 18:58:00
1:58 PM,44.6,24.8,46,30.53,10.0,South,4.6,-,N/A,,Clear,180,2013-11-29 19:58:00
2:58 PM,45.3,26.1,47,30.52,10.0,SE,5.8,-,N/A,,Clear,140,2013-11-29 20:58:00
3:58 PM,44.6,26.6,49,30.50,10.0,SE,6.9,-,N/A,,Clear,140,2013-11-29 21:58:00
4:58 PM,39.2,26.6,61,30.48,10.0,East,4.6,-,N/A,,Clear,100,2013-11-29 22:58:00
5:58 PM,36.7,25.7,64,30.47,10.0,ESE,4.6,-,N/A,,Clear,110,2013-11-29 23:58:00
6:58 PM,35.8,25.9,67,30.45,10.0,ESE,5.8,-,N/A,,Clear,110,2013-11-30 00:58:00
7:58 PM,33.8,24.8,70,30.46,10.0,ESE,4.6,-,N/A,,Clear,120,2013-11-30 01:58:00
8:58 PM,32.0,24.8,75,30.46,10.0,ESE,3.5,-,N/A,,Clear,110,2013-11-30 02:58:00
9:58 PM,32.0,24.8,75,30.45,10.0,ESE,3.5,-,N/A,,Clear,120,2013-11-30 03:58:00
10:58 PM,32.0,24.8,75,30.43,10.0,Calm,Calm,-,N/A,,Clear,0,2013-11-30 04:58:00
11:58 PM,30.0,25.3,83,30.41,10.0,Calm,Calm,-,N/A,,Clear,0,2013-11-30 05:58:00